PSEPV SBRJ-SBGR

Flight info

Callsign PSEPV
Flight time N/A
Altitude 26000
Route EVKOX DCT EDMUS
Aircraft EPIC/L-SDFGRWY/S

Departure

Time 2026-05-04 01:16
Airport Santos Dumont Airport (SBRJ)

Arrival

Time N/A
Airport São Paulo/Guarulhos–Governor André Franco Montoro International Airport (SBGR)
Time Latitude Longitude Altitude Speed Heading
2026-05-04 00:48 -22.90694 -43.16504 20 ft 0 kts 356°
2026-05-04 01:12 -22.90692 -43.16504 20 ft 1 kts 356°
2026-05-04 01:12 -22.90675 -43.16489 19 ft 6 kts 87°
2026-05-04 01:12 -22.90693 -43.16457 19 ft 7 kts 176°
2026-05-04 01:13 -22.90767 -43.16451 19 ft 11 kts 174°
2026-05-04 01:13 -22.90810 -43.16479 19 ft 7 kts 223°
2026-05-04 01:13 -22.90890 -43.16477 19 ft 15 kts 175°
2026-05-04 01:13 -22.91021 -43.16468 19 ft 21 kts 176°
2026-05-04 01:14 -22.91187 -43.16456 19 ft 26 kts 177°
2026-05-04 01:14 -22.91353 -43.16443 21 ft 19 kts 174°
2026-05-04 01:14 -22.91455 -43.16436 20 ft 9 kts 172°
2026-05-04 01:14 -22.91485 -43.16417 20 ft 8 kts 134°
2026-05-04 01:15 -22.91546 -43.16349 18 ft 14 kts 133°
2026-05-04 01:15 -22.91592 -43.16293 18 ft 0 kts 97°
2026-05-04 01:15 -22.91607 -43.16266 17 ft 5 kts 115°
2026-05-04 01:15 -22.91593 -43.16253 17 ft 6 kts 351°
2026-05-04 01:16 -22.91430 -43.16266 17 ft 61 kts 355°
2026-05-04 01:16 -22.90731 -43.16310 273 ft 120 kts 353°
2026-05-04 01:16 -22.89829 -43.16253 922 ft 144 kts 20°
2026-05-04 01:16 -22.89143 -43.15518 1821 ft 152 kts 65°
2026-05-04 01:17 -22.89035 -43.14420 2838 ft 157 kts 85°
2026-05-04 01:17 -22.88995 -43.13221 3728 ft 168 kts 84°
2026-05-04 01:17 -22.88936 -43.11960 4708 ft 173 kts 83°
2026-05-04 01:17 -22.88866 -43.10678 5736 ft 173 kts 83°
2026-05-04 01:18 -22.88799 -43.09422 6706 ft 171 kts 83°
2026-05-04 01:18 -22.88729 -43.08171 7543 ft 170 kts 84°
2026-05-04 01:18 -22.88656 -43.06898 8302 ft 174 kts 84°
2026-05-04 01:18 -22.88581 -43.05590 9014 ft 180 kts 85°
2026-05-04 01:19 -22.88529 -43.04239 9724 ft 184 kts 97°
2026-05-04 01:19 -22.89146 -43.03082 10442 ft 184 kts 144°
2026-05-04 01:19 -22.90334 -43.02697 11212 ft 184 kts 176°
2026-05-04 01:19 -22.91608 -43.02850 11923 ft 188 kts 191°
2026-05-04 01:20 -22.92868 -43.03211 12621 ft 189 kts 196°
2026-05-04 01:20 -22.94060 -43.03777 13095 ft 190 kts 219°
2026-05-04 01:20 -22.95088 -43.04693 13605 ft 194 kts 219°
2026-05-04 01:20 -22.96136 -43.05625 14154 ft 195 kts 220°
2026-05-04 01:21 -22.97184 -43.06560 14710 ft 197 kts 220°
2026-05-04 01:21 -22.98243 -43.07507 15261 ft 198 kts 221°
2026-05-04 01:21 -22.99300 -43.08452 15806 ft 199 kts 221°
2026-05-04 01:21 -23.00375 -43.09414 16360 ft 200 kts 221°
2026-05-04 01:22 -23.01237 -43.10545 16883 ft 198 kts 242°
2026-05-04 01:22 -23.01724 -43.11903 17435 ft 195 kts 258°
2026-05-04 01:22 -23.01832 -43.13361 18002 ft 194 kts 267°
2026-05-04 01:22 -23.01870 -43.14819 18555 ft 194 kts 268°
2026-05-04 01:23 -23.01894 -43.16275 19100 ft 194 kts 268°
2026-05-04 01:23 -23.01914 -43.17736 19646 ft 194 kts 268°
2026-05-04 01:23 -23.01932 -43.19192 20183 ft 194 kts 268°
2026-05-04 01:23 -23.01949 -43.20652 20715 ft 194 kts 267°
2026-05-04 01:24 -23.01966 -43.22099 21239 ft 194 kts 267°
2026-05-04 01:24 -23.01984 -43.23554 21762 ft 194 kts 266°
2026-05-04 01:24 -23.02002 -43.25012 22277 ft 194 kts 266°
2026-05-04 01:24 -23.02019 -43.26465 22783 ft 194 kts 265°
2026-05-04 01:25 -23.02037 -43.27928 23240 ft 193 kts 265°
2026-05-04 01:25 -23.02054 -43.29378 23646 ft 194 kts 265°
2026-05-04 01:25 -23.02072 -43.30841 24081 ft 194 kts 264°
2026-05-04 01:25 -23.02090 -43.32297 24519 ft 194 kts 265°
2026-05-04 01:26 -23.02107 -43.33747 24955 ft 194 kts 265°
2026-05-04 01:26 -23.02124 -43.35220 25396 ft 194 kts 265°
2026-05-04 01:26 -23.02143 -43.36669 25823 ft 194 kts 265°
2026-05-04 01:26 -23.02158 -43.38110 26176 ft 193 kts 265°
2026-05-04 01:27 -23.02175 -43.39614 26264 ft 202 kts 266°
2026-05-04 01:27 -23.02192 -43.41169 26283 ft 210 kts 267°
2026-05-04 01:27 -23.02208 -43.42776 26249 ft 216 kts 267°
2026-05-04 01:27 -23.02225 -43.44410 26237 ft 218 kts 267°
2026-05-04 01:28 -23.02242 -43.46050 26233 ft 220 kts 267°
2026-05-04 01:28 -23.02260 -43.47713 26232 ft 221 kts 267°
2026-05-04 01:28 -23.02277 -43.49384 26203 ft 221 kts 267°
2026-05-04 01:28 -23.02294 -43.51048 26195 ft 219 kts 267°
2026-05-04 01:29 -23.02312 -43.52693 26192 ft 218 kts 267°
2026-05-04 01:29 -23.02329 -43.54337 26192 ft 217 kts 267°
2026-05-04 01:29 -23.02333 -43.54758 26193 ft 217 kts 267°